Location: Unspecified
(0.0000°N, 0.0000°E)
Time: 15:05:56
(UTC+00:00)

CZ-4 DEB - Pass Details

Date: 22 June 2024
Orbit: 785 x 976 km, 99.1° (Epoch: 18 July)

Event Time Altitude Azimuth Distance (km) Brightness Sun altitude
Exits shadow 19:17:48 26° 101° (ESE) 1,809 ? -17.3°
Maximum altitude 19:19:21 29° 76° (ENE) 1,698 ? -17.6°
Drops below altitude 10° 19:24:30 10° 19° (NNE) 2,714 ? -18.8°
Sets 19:27:17 0° 8° (N) 3,660 ? -19.4°
